Date,TemperatureHighF,TemperatureAvgF,TemperatureLowF,DewpointHighF,DewpointAvgF,DewpointLowF,HumidityHigh,HumidityAvg,HumidityLow,PressureMaxIn,PressureMinIn,WindSpeedMaxMPH,WindSpeedAvgMPH,GustSpeedMaxMPH,PrecipitationSumIn
2013-1-1,34.0,30.6,23.2,30.3,26.0,14.9,89,83,70,30.17,30.06,3,1,10,0.01
2013-1-2,31.1,23.8,19.2,17.0,14.0,12.2,75,66,48,30.32,30.14,3,1,10,0.00
2013-1-3,35.6,25.2,12.4,21.0,16.2,9.1,88,70,51,30.31,30.20,5,1,14,0.00
2013-1-4,35.4,30.6,28.4,24.6,20.9,18.0,80,67,56,30.34,30.23,7,3,14,0.00
2013-1-5,39.7,32.4,27.0,25.8,21.9,17.5,75,65,54,30.47,30.23,3,1,11,0.00
2013-1-6,40.5,36.7,34.5,31.2,27.9,24.7,82,70,63,30.29,30.08,3,1,11,0.04
2013-1-7,37.4,33.1,28.0,28.0,25.5,22.1,79,74,62,30.54,30.29,3,1,11,0.00
2013-1-8,48.7,33.5,20.7,30.7,24.8,17.3,88,72,48,30.44,30.34,2,0,8,0.00
2013-1-9,50.0,38.7,25.5,40.5,31.8,22.2,89,77,64,30.57,30.31,4,1,15,0.02
2013-1-10,42.4,38.1,30.0,33.5,28.6,25.7,85,69,58,30.69,30.38,2,1,7,0.00
2013-1-11,55.0,47.7,39.0,51.1,40.4,26.9,90,76,57,30.38,30.06,4,1,11,0.20
2013-1-12,64.6,55.7,46.6,56.7,51.1,43.0,93,85,72,30.18,30.06,3,0,8,0.01
2013-1-13,71.1,62.8,55.0,57.0,54.4,50.1,91,75,58,30.06,29.95,6,2,17,0.08
2013-1-14,59.2,40.5,32.0,56.6,31.5,22.8,91,71,53,30.46,29.98,6,2,18,0.02
2013-1-15,34.2,31.0,25.5,27.0,22.7,20.6,83,71,62,30.47,30.17,3,2,8,0.00
2013-1-16,35.4,32.8,31.1,32.1,29.4,26.9,89,87,83,30.17,29.99,3,1,7,0.06
2013-1-17,36.9,34.6,32.2,28.9,28.0,26.7,85,77,70,30.27,30.11,3,1,13,0.02
2013-1-18,34.7,27.6,20.1,27.3,14.1,6.9,81,58,39,30.57,30.24,5,2,18,0.00
2013-1-19,57.6,45.5,32.7,23.0,17.4,13.0,51,33,19,30.32,29.93,5,2,11,0.01
2013-1-20,47.3,36.9,24.6,30.4,18.3,11.4,60,47,34,30.23,29.88,8,3,17,0.00
2013-1-21,27.9,22.3,13.3,20.4,12.0,1.8,79,64,55,30.19,30.00,5,3,18,0.00
2013-1-22,16.7,11.1,7.7,7.1,-0.4,-4.1,75,59,41,30.34,30.13,5,3,17,0.00
2013-1-23,18.5,13.4,7.2,9.6,1.4,-1.6,74,59,42,30.38,30.14,4,2,11,0.00
2013-1-24,26.4,17.3,12.6,12.7,5.8,-4.5,84,62,27,30.61,30.12,6,2,17,0.00
2013-1-25,20.8,16.5,12.7,15.4,9.3,2.4,84,73,57,30.59,30.10,3,1,11,0.00
2013-1-26,32.9,24.3,18.9,24.2,17.7,12.1,84,76,64,30.52,30.16,3,1,11,0.00
2013-1-27,35.4,25.4,12.2,20.4,15.2,8.7,86,66,48,30.62,30.40,3,1,8,0.02
2013-1-28,50.4,41.4,30.9,46.7,37.1,20.0,90,85,63,30.40,30.10,4,1,14,0.32
2013-1-29,66.2,57.0,49.8,55.7,50.2,45.0,92,78,65,30.15,29.90,4,1,12,0.01
2013-1-30,68.4,59.5,51.1,56.5,52.2,44.3,93,78,61,29.91,29.35,6,3,17,0.83
2013-1-31,51.1,30.5,24.1,45.5,21.7,9.9,90,70,47,29.94,29.34,12,4,26,0.02
2013-2-1,24.3,17.8,11.8,19.3,7.3,1.9,81,63,52,30.42,29.91,7,3,21,0.00
2013-2-2,26.1,19.1,10.9,21.2,12.7,3.1,86,76,67,30.40,30.05,5,1,13,0.00
2013-2-3,30.4,24.5,19.2,22.5,18.5,12.3,86,78,62,30.12,29.92,4,2,17,0.00
2013-2-4,30.7,23.9,18.9,24.2,17.2,10.4,87,76,56,30.16,29.95,4,1,14,0.00
2013-2-5,33.4,29.6,26.8,29.4,25.8,23.6,89,86,75,30.03,29.91,3,1,8,0.00
2013-2-6,39.9,30.5,22.1,26.4,21.9,15.2,88,71,43,30.42,30.03,4,1,13,0.06
2013-2-7,47.5,32.2,19.2,29.0,22.6,14.2,84,68,46,30.39,30.06,4,1,11,0.04
2013-2-8,39.6,33.7,27.1,36.1,27.9,20.6,88,79,73,30.24,29.90,6,2,19,0.13
2013-2-9,42.3,28.5,22.3,21.1,17.1,13.9,78,63,35,30.47,30.24,7,2,17,0.00
2013-2-10,54.9,36.5,18.1,27.1,18.7,14.2,85,53,23,30.44,30.06,4,1,11,0.00
2013-2-11,65.1,48.7,38.8,47.6,34.5,24.0,89,62,25,30.06,29.75,8,3,24,0.07
2013-2-12,48.2,37.8,30.0,27.0,24.9,15.5,75,60,42,30.17,30.01,5,2,16,0.00
2013-2-13,41.0,32.3,24.3,30.5,26.4,21.0,88,79,60,30.03,29.78,3,0,10,0.01
2013-2-14,44.2,36.5,29.7,35.0,29.8,25.3,87,77,62,30.05,29.95,5,1,13,0.17
2013-2-15,44.1,37.4,27.7,35.3,27.7,22.5,87,69,46,30.15,30.00,4,1,13,0.00
2013-2-16,37.8,27.6,23.2,23.5,17.6,12.7,82,67,39,30.15,30.00,3,1,11,0.04
2013-2-17,27.3,20.9,16.9,18.6,12.1,4.9,87,69,50,30.34,30.00,5,2,18,0.00
2013-2-18,45.7,29.7,10.2,30.2,15.1,5.5,84,56,35,30.38,29.97,5,1,14,0.00
2013-2-19,46.2,37.7,25.0,39.0,28.9,13.5,85,71,47,30.03,29.77,7,4,22,0.14
2013-2-20,25.7,21.8,19.0,16.1,12.3,7.4,79,67,49,30.29,30.03,6,3,21,0.00
2013-2-21,32.2,23.2,19.8,17.5,14.4,12.2,82,69,49,30.44,30.26,4,2,14,0.00
2013-2-22,37.4,31.3,21.6,33.3,24.7,14.1,89,77,54,30.37,30.08,6,2,14,0.02
2013-2-23,47.1,37.6,30.9,37.0,31.8,27.5,87,80,63,30.10,29.95,2,1,8,0.00
2013-2-24,34.0,31.2,28.0,27.9,23.5,19.9,87,73,59,30.23,29.96,4,1,13,0.00
2013-2-25,48.2,35.9,23.9,28.8,22.8,20.1,89,61,37,30.32,30.15,4,1,9,0.00
2013-2-26,42.4,36.1,30.0,35.8,27.7,20.8,92,72,47,30.17,29.68,10,2,21,0.81
2013-2-27,46.9,40.5,35.1,39.7,36.0,31.3,93,84,69,29.78,29.66,4,1,14,0.26
2013-2-28,36.5,34.8,33.1,32.7,30.7,28.2,90,85,78,29.91,29.72,4,2,13,0.08
2013-3-1,33.4,30.9,26.6,30.7,25.0,19.5,90,78,71,30.07,29.90,4,1,11,0.01
2013-3-2,31.5,27.5,25.5,24.1,20.8,18.5,87,76,63,30.05,29.99,4,2,13,0.01
2013-3-3,30.9,26.9,23.9,23.1,20.0,17.2,87,75,63,30.09,30.00,4,2,14,0.00
2013-3-4,48.0,30.1,23.0,21.1,17.9,-5.9,81,62,37,30.21,30.08,4,2,14,0.11
2013-3-5,49.5,35.2,21.0,26.0,17.4,7.9,82,52,20,30.19,29.78,5,2,21,0.00
2013-3-6,45.9,37.3,32.2,35.8,29.1,25.5,92,73,56,30.20,29.78,5,1,21,0.43
2013-3-7,46.0,37.2,33.6,34.0,29.4,25.5,85,74,52,30.38,30.19,6,2,14,0.00
2013-3-8,34.0,32.1,30.9,27.4,25.8,24.5,81,77,74,30.46,30.37,4,2,13,0.00
2013-3-9,60.3,41.7,24.4,29.6,26.0,21.7,90,58,24,30.50,30.27,4,1,6,0.01
2013-3-10,74.5,56.4,39.0,35.5,29.5,24.7,69,41,17,30.27,30.09,6,2,11,0.00
2013-3-11,65.5,58.1,49.1,48.8,34.2,27.2,88,43,25,30.10,29.81,7,2,15,0.20
2013-3-12,48.2,41.2,37.6,44.8,33.7,27.7,88,75,63,30.09,29.88,4,2,8,0.05
2013-3-13,37.6,33.7,28.8,30.7,25.7,17.4,89,73,56,30.22,30.01,7,3,11,0.05
2013-3-14,42.4,32.7,25.7,20.5,17.9,15.8,71,56,37,30.29,30.20,7,3,11,0.00
2013-3-15,52.5,45.9,30.0,36.6,30.1,19.7,84,55,42,30.22,29.91,5,2,13,0.00
2013-3-16,40.8,36.8,33.6,37.9,34.1,30.2,92,90,84,30.06,29.74,4,2,13,0.06
2013-3-17,39.7,33.5,29.3,30.2,23.9,21.1,87,68,50,30.29,30.06,4,2,11,0.01
2013-3-18,42.4,35.4,30.7,36.5,29.7,21.8,91,80,66,30.26,29.79,5,2,18,0.41
2013-3-19,48.2,39.6,31.8,41.1,26.2,15.6,93,61,29,30.06,29.79,9,4,27,0.04
2013-3-20,42.8,32.7,28.6,18.6,17.1,13.4,61,53,35,30.06,29.97,6,2,17,0.00
2013-3-21,32.2,26.6,20.1,21.0,13.6,5.1,82,59,38,29.99,29.94,5,2,11,0.00
2013-3-22,36.9,30.4,26.6,20.6,18.9,17.1,74,63,46,30.11,29.98,5,2,14,0.00
2013-3-23,51.3,36.4,23.0,26.8,21.4,18.6,88,58,31,30.13,30.06,5,1,8,0.00
2013-3-24,47.1,35.5,27.7,29.9,22.8,20.5,83,62,37,30.09,29.64,6,2,13,0.00
2013-3-25,39.9,35.6,31.8,35.1,32.7,29.7,93,89,81,29.84,29.56,4,1,9,0.09
2013-3-26,46.6,37.5,32.9,33.4,31.4,27.5,93,79,57,30.17,29.84,4,2,17,0.05
2013-3-27,126.3,38.3,33.1,99.9,30.2,-6.9,93,75,42,30.25,30.15,108,3,108,0.12
2013-3-28,46.2,40.0,35.6,32.3,30.0,28.0,83,68,51,30.36,30.21,5,2,15,0.00
2013-3-29,60.4,46.0,39.0,33.1,26.3,16.4,71,50,19,30.36,30.23,4,1,11,0.00
2013-3-30,61.5,46.2,28.6,32.2,20.6,13.3,81,42,16,30.35,30.13,3,1,10,0.00
2013-3-31,52.3,47.6,40.6,46.9,36.2,20.0,88,67,33,30.13,29.83,4,1,9,0.08
2013-4-1,48.4,42.9,33.8,43.7,27.4,9.4,87,58,23,30.12,29.81,6,3,19,0.04
2013-4-2,45.3,35.2,27.3,22.0,14.6,9.8,70,44,25,30.28,30.11,5,2,21,0.00
2013-4-3,44.1,35.2,28.4,23.1,12.9,6.4,64,41,23,30.50,30.27,6,2,22,0.00
2013-4-4,58.8,40.6,21.4,21.1,11.6,-1.2,79,39,10,30.49,30.07,3,1,11,0.00
2013-4-5,59.4,46.1,34.3,29.3,23.0,17.3,68,42,20,30.29,30.03,7,2,20,0.00
2013-4-6,63.9,45.7,27.0,26.3,12.6,-1.6,74,35,10,30.40,30.13,4,1,12,0.00
2013-4-7,75.4,63.4,53.2,46.4,35.0,14.6,57,35,21,30.13,29.97,5,3,18,0.00
2013-4-8,78.8,65.2,50.0,49.1,44.4,40.6,71,49,29,30.16,29.99,5,2,17,0.00
2013-4-9,84.9,72.8,59.2,55.2,51.8,46.2,76,49,32,30.22,30.01,4,2,13,0.00
2013-4-10,83.8,71.6,60.6,63.9,57.5,51.4,93,63,43,30.10,29.90,6,1,18,0.50
2013-4-11,77.5,66.6,57.2,59.5,57.1,50.6,93,74,50,30.01,29.72,6,2,14,0.00
2013-4-12,65.8,58.4,46.6,60.3,49.2,32.9,94,72,48,29.97,29.62,9,3,26,0.48
2013-4-13,57.6,48.0,41.9,35.5,32.8,30.4,70,57,38,30.13,29.96,6,2,16,0.00
2013-4-14,67.6,52.5,37.0,35.0,30.3,-1.8,71,45,25,30.26,30.13,4,1,11,0.00
2013-4-15,70.7,63.1,56.7,49.6,44.1,34.3,64,50,39,30.21,30.09,6,2,18,0.00
2013-4-16,82.2,66.4,57.2,60.7,54.2,47.9,94,67,44,30.31,30.13,9,2,22,0.50
2013-4-17,76.1,62.3,52.2,56.8,52.2,46.4,95,72,45,30.37,30.20,4,2,11,0.01
2013-4-18,88.7,75.0,62.4,60.0,56.7,53.7,81,56,32,30.22,29.89,7,3,21,0.00
2013-4-19,73.8,61.6,45.9,61.6,48.2,28.8,83,62,50,29.97,29.62,7,4,24,0.20
2013-4-20,50.4,43.9,37.4,32.8,26.0,21.3,78,51,34,30.50,29.97,6,3,21,0.00
2013-4-21,59.2,44.4,29.1,27.4,20.1,11.4,82,43,16,30.69,30.50,5,2,11,0.00
2013-4-22,68.4,54.8,43.9,28.8,23.4,13.8,48,31,15,30.56,30.36,5,2,14,0.00
2013-4-23,76.8,59.9,42.1,38.4,31.9,26.7,68,39,17,30.40,30.08,3,1,12,0.00
2013-4-24,72.9,58.1,41.5,57.0,44.6,33.7,90,63,41,30.28,29.87,8,3,27,0.32
2013-4-25,63.1,48.9,37.9,41.0,32.2,23.5,86,57,23,30.46,30.27,4,2,15,0.05
2013-4-26,66.6,52.3,37.6,43.1,31.1,18.2,92,52,18,30.57,30.44,4,1,10,0.00
2013-4-27,79.3,60.6,37.9,38.3,31.5,22.3,86,41,14,30.50,30.26,5,2,16,0.00
2013-4-28,63.5,58.7,55.9,53.5,47.1,38.0,88,67,39,30.27,30.05,6,2,15,0.20
2013-4-29,67.6,59.5,54.9,57.7,53.0,48.1,89,79,67,30.14,30.05,4,1,11,0.08
2013-4-30,77.4,65.0,50.4,56.3,52.2,32.4,91,66,42,30.31,30.14,8,2,17,0.00
2013-5-1,81.7,67.9,55.6,51.0,45.4,31.3,78,49,22,30.42,30.30,6,2,14,0.00
2013-5-2,83.3,67.9,51.8,40.3,31.1,17.6,63,30,10,30.48,30.30,5,2,14,0.00
2013-5-3,79.0,66.4,50.0,43.8,38.0,24.1,73,38,15,30.38,30.25,12,3,22,0.00
2013-5-4,76.5,63.8,50.5,42.4,38.6,27.6,60,41,19,30.33,30.18,5,3,17,0.00
2013-5-5,78.4,65.1,52.9,41.2,29.4,11.1,63,33,10,30.27,30.11,6,3,18,0.00
2013-5-6,74.8,63.0,49.8,53.9,45.2,34.7,72,53,40,30.21,30.10,6,2,18,0.00
2013-5-7,74.5,64.2,57.9,57.9,54.5,52.2,85,72,46,30.15,30.07,5,2,11,0.06
2013-5-8,79.2,66.4,54.9,56.9,51.0,42.2,94,62,29,30.11,29.99,6,2,13,0.15
2013-5-9,82.2,68.2,57.6,56.8,51.5,38.5,88,59,25,30.11,30.02,3,1,11,0.00
2013-5-10,80.1,66.3,61.7,62.0,57.6,47.4,94,75,49,30.12,29.92,5,1,19,0.52
2013-5-11,62.6,58.7,53.6,60.8,53.6,47.6,95,84,69,29.95,29.88,3,1,11,0.12
2013-5-12,57.0,50.3,40.6,49.1,31.3,23.4,84,50,29,30.16,29.94,6,3,21,0.00
2013-5-13,58.8,47.4,37.2,31.6,25.5,17.7,76,45,21,30.29,30.15,6,2,20,0.00
2013-5-14,65.8,51.1,34.2,40.5,33.8,26.1,88,55,32,30.29,30.01,5,1,14,0.00
2013-5-15,90.3,71.8,52.7,61.3,53.3,39.5,75,54,34,30.01,29.82,6,2,19,0.00
2013-5-16,86.2,74.5,63.9,63.0,53.8,40.8,93,55,21,30.10,29.89,4,1,13,0.25
2013-5-17,87.1,71.7,57.2,60.0,54.5,45.6,88,59,29,30.23,30.09,4,1,11,0.00
2013-5-18,87.3,72.1,58.6,62.3,53.6,45.3,74,54,33,30.26,30.13,4,2,14,0.00
2013-5-19,82.2,71.5,61.2,63.2,60.6,57.3,88,70,50,30.23,30.09,4,2,12,0.00
2013-5-20,91.6,77.5,63.1,67.7,64.3,59.9,90,66,43,30.17,30.01,4,1,11,0.00
2013-5-21,93.4,81.3,69.4,69.4,66.1,61.1,90,62,39,30.09,29.93,5,2,13,0.00
2013-5-22,92.8,77.1,69.1,69.0,62.5,59.4,79,62,37,30.02,29.89,6,2,16,0.00
2013-5-23,82.0,67.4,51.8,65.0,61.6,49.3,94,83,47,30.03,29.88,6,2,17,1.06
2013-5-24,51.8,46.8,42.1,49.3,38.1,30.8,91,73,51,30.39,30.02,6,3,17,0.01
2013-5-25,65.7,51.6,37.6,39.0,33.6,28.9,86,54,26,30.41,30.31,5,2,17,0.00
2013-5-26,57.2,46.2,42.3,40.1,33.6,30.9,73,62,50,30.40,30.34,2,1,7,0.00
2013-5-27,66.6,57.3,43.0,48.0,41.7,36.4,89,58,37,30.39,30.22,4,1,8,0.00
2013-5-28,86.0,75.2,55.0,66.7,61.9,47.4,94,65,48,30.22,30.08,4,1,14,0.28
2013-5-29,93.4,81.7,71.2,62.4,60.7,58.7,68,50,32,30.20,30.12,10,2,21,0.00
2013-5-30,93.6,81.9,66.0,65.5,62.1,56.4,83,54,30,30.31,30.19,3,1,11,0.00
2013-5-31,93.4,81.8,68.9,66.0,63.2,59.5,87,57,34,30.25,30.09,4,2,14,0.00
2013-6-1,92.1,81.3,69.4,68.6,65.0,61.8,89,59,41,30.14,29.93,4,2,17,0.07
2013-6-2,86.4,78.1,72.0,67.9,62.3,56.2,86,60,39,29.99,29.91,5,2,15,0.01
2013-6-3,75.0,65.9,54.7,59.1,52.6,40.5,83,63,40,30.19,29.99,4,2,12,0.00
2013-6-4,79.3,63.4,45.7,48.1,43.8,40.1,87,53,28,30.28,30.19,4,1,12,0.00
2013-6-5,87.6,71.1,53.4,61.0,52.8,45.8,80,54,37,30.26,30.03,6,1,16,0.00
2013-6-6,72.7,67.6,64.0,66.5,63.5,57.9,96,87,60,30.06,29.90,5,1,12,1.12
2013-6-7,70.9,64.3,59.9,64.2,60.8,54.2,100,89,76,29.98,29.87,4,2,13,0.01
2013-6-8,79.3,66.0,58.1,56.4,54.6,53.2,85,69,43,30.23,29.98,3,1,10,0.00
2013-6-9,86.5,73.3,58.6,64.7,59.5,55.6,93,65,40,30.29,30.12,5,2,14,0.00
2013-6-10,79.0,72.8,69.1,71.8,67.0,62.3,95,82,67,30.14,29.89,3,1,12,0.43
2013-6-11,83.7,72.6,66.6,68.3,63.5,60.2,89,74,48,30.01,29.91,4,2,14,0.02
2013-6-12,88.3,77.8,67.3,70.9,65.9,62.3,89,69,44,30.04,29.87,4,1,14,0.00
2013-6-13,78.3,69.5,62.4,72.8,63.3,55.3,96,81,65,29.92,29.67,6,3,20,0.56
2013-6-14,81.0,66.7,57.7,59.3,56.0,53.6,88,71,39,30.18,29.92,4,1,13,0.00
2013-6-15,85.3,71.1,54.7,56.7,51.1,39.7,94,56,23,30.26,30.12,4,1,11,0.00
2013-6-16,82.2,71.5,64.0,69.0,63.3,54.4,93,76,52,30.14,30.01,3,1,12,0.47
2013-6-17,89.8,78.2,68.5,68.1,61.9,52.6,92,62,30,30.10,30.00,3,1,17,0.00
2013-6-18,84.4,72.4,65.1,67.8,62.2,59.1,86,71,50,30.08,29.96,3,1,10,0.07
2013-6-19,83.3,69.5,57.4,59.2,50.2,41.1,85,55,24,30.27,30.08,4,2,11,0.00
2013-6-20,88.9,72.1,53.2,57.5,51.2,43.8,93,54,24,30.35,30.27,3,1,8,0.00
2013-6-21,93.7,76.9,58.8,62.1,56.3,52.3,91,54,26,30.38,30.26,3,1,8,0.02
2013-6-22,93.9,80.2,63.7,68.1,64.5,58.8,90,61,40,30.32,30.17,4,1,12,0.00
2013-6-23,95.5,84.8,71.8,70.2,66.8,61.7,85,57,35,30.27,30.16,4,1,11,0.00
2013-6-24,95.2,84.4,70.5,69.0,65.8,61.4,87,56,34,30.27,30.11,4,1,12,0.00
2013-6-25,95.7,81.0,66.9,69.4,67.0,62.3,96,65,40,30.18,29.99,8,2,22,0.54
2013-6-26,89.1,76.8,66.9,70.6,68.1,65.1,100,77,48,30.12,29.93,5,1,15,1.77
2013-6-27,81.9,74.2,70.2,72.5,69.2,65.0,95,85,68,29.94,29.75,4,1,11,0.58
2013-6-28,84.7,72.8,66.4,71.5,66.4,62.8,94,81,58,29.79,29.61,5,1,18,0.28
2013-6-29,86.9,74.1,63.7,64.8,62.6,60.3,92,70,43,29.83,29.68,4,1,11,0.00
2013-6-30,89.1,74.0,63.9,70.6,65.8,62.4,96,78,44,29.98,29.81,4,1,15,0.70
2013-7-1,82.4,73.3,67.6,69.8,67.1,65.1,97,82,61,30.07,29.95,4,1,13,0.08
2013-7-2,90.9,78.8,68.4,71.3,68.7,66.0,97,73,50,30.18,30.06,3,1,11,0.11
2013-7-3,92.5,79.5,73.8,69.6,67.9,66.1,78,69,46,30.29,30.18,4,1,12,0.00
2013-7-4,92.7,81.2,73.0,71.5,69.0,66.1,93,69,43,30.34,30.22,6,1,10,0.05
2013-7-5,90.7,81.3,72.9,70.3,68.9,67.4,91,68,47,30.29,30.20,6,2,18,0.01
2013-7-6,94.8,83.4,72.5,72.3,70.4,67.7,93,67,43,30.30,30.14,4,1,7,0.09
2013-7-7,86.0,77.6,72.9,71.1,69.2,67.7,88,76,57,30.22,30.12,4,1,8,0.07
2013-7-8,89.2,81.9,68.4,68.8,66.0,63.0,90,60,47,30.25,30.17,3,2,9,0.00
2013-7-9,90.9,79.7,69.1,76.0,72.1,60.0,100,78,58,30.24,30.08,3,2,11,0.66
2013-7-10,90.1,74.3,63.1,78.2,70.8,63.2,100,90,65,30.14,29.93,9,1,25,1.31
2013-7-11,82.8,73.4,65.8,67.3,62.4,57.6,97,71,46,30.13,30.02,4,2,11,0.00
2013-7-12,80.8,69.9,60.1,66.6,61.7,56.7,92,76,56,30.24,30.12,3,1,8,0.01
2013-7-13,88.0,76.3,64.0,70.0,65.5,60.7,91,70,50,30.35,30.22,4,2,11,0.00
2013-7-14,97.3,84.0,71.6,70.7,68.2,65.4,89,62,40,30.41,30.33,4,1,12,0.00
2013-7-15,100.0,85.1,72.0,72.2,69.7,64.9,93,63,36,30.47,30.35,3,1,10,0.00
2013-7-16,95.7,81.2,72.9,76.4,73.4,70.1,97,79,48,30.44,30.35,8,1,21,0.32
2013-7-17,97.7,82.8,73.6,78.2,75.3,72.5,100,80,47,30.43,30.28,5,1,13,0.01
2013-7-18,99.7,87.3,75.7,77.5,74.8,70.7,94,69,41,30.31,30.14,3,1,11,0.00
2013-7-19,98.2,85.6,75.9,75.9,72.9,68.6,85,68,41,30.16,29.99,6,2,17,0.01
2013-7-20,88.9,79.3,72.3,74.0,70.2,67.8,92,75,56,30.05,29.96,5,2,16,0.09
2013-7-21,89.6,77.2,70.0,72.0,69.7,66.1,97,79,50,30.09,30.02,4,1,11,0.46
2013-7-22,83.8,73.4,67.5,75.1,70.8,64.5,100,92,73,30.08,29.90,4,1,11,0.40
2013-7-23,89.1,75.0,68.4,70.8,67.8,61.8,100,81,45,29.92,29.82,5,1,16,0.26
2013-7-24,79.7,69.2,61.9,67.0,58.0,53.1,94,69,43,30.12,29.89,5,2,14,0.01
2013-7-25,81.9,68.1,54.3,57.2,53.2,49.2,93,62,34,30.21,30.12,4,2,13,0.00
2013-7-26,87.1,72.9,57.0,64.4,57.3,53.0,97,63,35,30.22,30.11,3,1,11,0.00
2013-7-27,77.4,69.8,64.0,69.5,64.9,59.5,100,85,68,30.12,29.96,4,1,11,0.78
2013-7-28,82.4,71.7,64.4,68.8,60.9,54.0,100,72,41,30.16,29.97,4,2,14,0.12
2013-7-29,79.3,67.3,59.0,56.5,54.2,50.9,85,65,39,30.23,30.16,4,1,12,0.00
2013-7-30,84.6,75.6,56.8,62.0,57.6,52.5,97,56,36,30.36,30.26,3,1,8,0.00
2013-7-31,67.1,63.5,61.3,63.6,61.2,59.9,97,92,79,30.28,30.26,1,0,4,0.00
2013-8-1,87.1,75.0,67.3,68.9,64.6,60.3,100,73,43,30.08,29.97,4,1,7,0.11
2013-8-2,82.4,73.4,63.9,63.5,59.1,50.4,93,65,33,30.11,30.03,6,2,11,0.00
2013-8-3,83.1,72.1,66.0,69.5,64.0,57.0,100,77,50,30.11,30.04,4,1,11,0.22
2013-8-4,79.7,68.0,58.3,60.3,56.8,52.7,97,70,43,30.21,30.11,7,2,11,0.02
2013-8-5,81.5,72.3,56.1,58.6,53.9,48.2,97,55,33,30.25,30.14,3,1,8,0.00
2013-8-6,87.6,73.1,59.0,62.8,56.9,51.7,95,62,32,30.17,30.08,3,1,10,0.00
2013-8-7,88.3,73.0,64.6,70.9,65.1,59.8,93,77,55,30.11,30.06,3,1,8,0.00
2013-8-8,90.9,82.0,69.6,75.0,72.2,67.4,94,73,58,30.10,30.00,4,2,12,0.00
2013-8-9,84.9,76.9,70.5,75.5,71.4,63.3,100,84,64,30.14,30.01,4,1,11,0.27
2013-8-10,87.3,75.5,64.9,66.5,64.0,60.8,96,70,43,30.22,30.14,3,1,13,0.00
2013-8-11,88.0,75.0,64.6,70.8,62.8,57.2,85,67,43,30.25,30.13,4,1,11,0.00
2013-8-12,90.5,78.5,65.7,70.2,65.3,60.8,97,68,39,30.19,30.00,3,1,10,0.00
2013-8-13,83.8,74.2,60.1,69.7,63.2,50.3,90,70,46,30.11,29.92,5,2,17,0.00
2013-8-14,75.2,63.0,55.6,56.0,51.5,48.6,84,67,44,30.27,30.10,4,1,12,0.00
2013-8-15,79.9,65.5,51.1,58.0,51.1,46.5,97,64,32,30.32,30.20,4,1,9,0.00
2013-8-16,84.7,69.5,55.0,57.6,54.7,51.6,95,64,34,30.30,30.23,3,1,8,0.00
2013-8-17,83.8,71.0,57.6,61.0,56.5,49.4,96,64,31,30.38,30.29,4,1,14,0.00
2013-8-18,78.4,70.2,64.4,67.3,62.4,58.3,97,77,60,30.34,30.25,3,1,8,0.02
2013-8-19,86.9,73.0,66.6,71.1,66.5,63.3,100,83,49,30.28,30.16,2,1,7,0.20
2013-8-20,90.9,75.5,61.3,67.1,61.9,55.6,100,68,32,30.32,30.23,2,1,8,0.00
2013-8-21,91.2,77.5,62.2,68.9,63.9,58.4,100,67,35,30.33,30.17,3,1,8,0.00
2013-8-22,89.2,76.8,69.3,74.5,68.8,64.9,96,78,50,30.23,30.09,5,1,14,0.61
2013-8-23,88.9,75.1,67.8,71.1,64.6,56.3,100,74,36,30.28,30.11,4,1,9,0.01
2013-8-24,87.3,72.4,60.1,63.3,58.6,55.7,88,64,37,30.42,30.27,3,1,12,0.00
2013-8-25,89.8,74.9,59.4,63.7,60.5,56.9,97,65,34,30.48,30.34,3,1,9,0.00
2013-8-26,91.2,78.5,66.2,68.7,63.3,59.6,83,61,40,30.38,30.14,3,1,11,0.00
2013-8-27,88.0,78.4,73.8,75.2,70.8,67.8,94,78,59,30.15,30.05,4,1,14,0.22
2013-8-28,81.3,74.8,72.1,76.7,73.6,71.7,100,96,82,30.08,29.95,4,1,11,0.79
2013-8-29,90.3,81.3,69.8,72.7,69.2,66.7,99,68,49,30.16,30.04,3,1,8,0.00
2013-8-30,94.3,79.9,66.6,72.6,69.6,66.3,100,74,45,30.14,29.95,3,1,11,0.00
2013-8-31,93.2,81.3,73.6,72.6,70.8,67.6,90,72,44,29.98,29.88,3,1,13,0.00
2013-9-1,86.7,76.8,72.3,74.0,72.2,70.4,100,86,64,29.97,29.89,2,1,8,0.12
2013-9-2,91.2,78.0,68.7,73.3,70.6,66.6,96,80,49,29.99,29.85,4,1,12,0.19
2013-9-3,76.3,68.1,63.1,67.0,60.2,54.1,100,78,49,30.17,29.96,3,1,12,0.00
2013-9-4,84.9,70.0,57.0,60.0,57.4,55.7,97,68,40,30.25,30.15,3,1,11,0.00
2013-9-5,79.9,69.4,57.6,62.9,55.4,47.0,86,63,37,30.34,30.18,4,2,14,0.00
2013-9-6,80.4,63.9,48.4,52.2,47.2,39.2,100,60,25,30.40,30.25,4,1,10,0.00
2013-9-7,86.0,69.1,50.5,58.5,52.4,45.2,100,61,26,30.26,30.06,3,1,8,0.00
2013-9-8,84.2,74.0,64.4,69.0,62.6,58.2,83,68,55,30.19,30.04,5,1,14,0.00
2013-9-9,88.3,67.9,59.0,70.4,60.6,56.1,91,79,55,30.23,30.16,2,1,9,0.00
2013-9-10,96.6,87.0,70.2,76.4,74.7,69.9,99,68,51,30.26,30.17,3,1,13,0.00
2013-9-11,94.3,81.0,75.4,76.6,73.4,69.7,92,79,53,30.28,30.14,6,1,15,0.08
2013-9-12,81.7,74.6,68.9,72.9,71.1,66.7,97,89,73,30.14,29.94,5,1,26,0.34
2013-9-13,70.7,63.6,58.5,63.2,57.2,52.0,100,81,60,30.04,29.94,6,2,19,0.26
2013-9-14,72.5,59.2,51.8,49.7,46.7,43.2,87,66,38,30.29,30.15,4,1,8,0.00
2013-9-15,75.6,62.3,48.0,57.0,51.5,47.2,100,71,44,30.31,30.18,4,1,8,0.00
2013-9-16,76.3,66.8,54.5,58.9,54.2,49.8,100,66,47,30.43,30.20,4,2,11,0.19
2013-9-17,75.6,60.3,47.1,52.7,47.2,43.3,97,66,33,30.52,30.36,4,2,14,0.00
2013-9-18,80.2,63.7,46.9,55.4,49.6,43.6,94,63,37,30.39,30.21,3,1,9,0.00
2013-9-19,81.9,68.4,63.3,64.9,60.6,55.1,94,77,51,30.26,30.19,2,1,8,0.00
2013-9-20,85.6,73.2,61.9,70.2,66.5,60.4,96,81,60,30.17,29.96,4,1,9,0.00
2013-9-21,72.1,66.0,59.0,69.4,63.9,58.7,100,94,82,29.96,29.82,4,2,8,0.61
2013-9-22,66.0,58.6,54.3,58.2,51.6,46.8,99,80,52,30.14,29.93,6,2,11,0.01
2013-9-23,66.0,55.7,46.8,50.3,44.8,42.1,92,68,49,30.27,30.14,4,1,8,0.01
2013-9-24,77.4,56.8,43.3,50.1,45.3,40.8,100,72,29,30.25,30.08,4,1,11,0.00
2013-9-25,81.3,61.6,47.7,55.7,51.3,46.4,100,74,31,30.11,29.99,4,1,9,0.00
2013-9-26,81.9,64.7,50.4,55.8,51.8,46.2,100,69,30,30.20,30.06,3,1,8,0.00
2013-9-27,79.7,62.2,50.4,56.9,52.9,50.1,100,75,39,30.32,30.20,4,1,8,0.00
2013-9-28,80.4,64.0,51.6,58.7,53.6,50.0,100,72,39,30.38,30.26,4,1,12,0.00
2013-9-29,81.0,66.3,53.2,59.8,54.4,49.0,89,67,44,30.28,30.11,3,1,10,0.00
2013-9-30,75.0,65.2,56.5,62.7,58.4,53.9,94,79,63,30.18,30.10,3,0,10,0.00
2013-10-1,81.5,68.2,62.4,64.1,61.0,59.5,92,79,50,30.21,30.14,3,1,13,0.00
2013-10-2,86.0,73.0,62.8,66.8,62.5,59.3,90,72,46,30.22,30.14,3,1,8,0.00
2013-10-3,83.3,72.8,61.3,70.0,65.9,61.1,100,80,64,30.22,30.13,3,1,8,0.11
2013-10-4,86.9,73.0,66.0,70.9,67.6,65.1,100,85,50,30.23,30.14,4,1,9,0.09
2013-10-5,84.4,72.4,67.3,71.8,69.0,67.0,100,90,64,30.21,30.11,3,0,8,0.20
2013-10-6,90.1,77.0,66.7,68.8,65.9,60.7,99,72,41,30.10,29.88,4,1,10,0.00
2013-10-7,74.5,62.3,53.6,61.6,53.5,44.7,100,75,51,30.03,29.83,4,2,11,0.32
2013-10-10,74.8,60.6,47.8,49.8,45.8,40.8,87,60,31,30.36,30.22,4,1,7,0.00
2013-10-11,64.6,59.3,52.9,57.8,53.6,48.1,97,82,73,30.22,30.17,4,1,7,0.04
2013-10-12,79.9,66.4,56.3,63.7,57.9,51.9,90,75,57,30.28,30.18,3,1,7,0.01
2013-10-13,76.1,66.0,60.6,63.0,59.0,56.0,91,79,63,30.38,30.27,5,1,8,0.01
2013-10-14,63.7,61.6,58.6,59.8,58.8,57.9,100,91,83,30.42,30.34,4,1,6,0.00
2013-10-15,74.1,65.1,54.1,62.0,58.4,53.9,100,80,63,30.33,30.10,4,1,7,0.00
2013-10-16,63.0,60.4,58.5,57.9,56.6,54.8,96,88,77,30.11,30.06,4,1,8,0.22
2013-10-17,63.0,56.9,51.4,60.6,53.2,49.3,100,88,71,30.03,29.81,8,1,14,0.30
2013-10-18,68.7,56.5,47.3,49.8,44.6,41.5,93,67,39,30.14,30.01,4,2,9,0.00
2013-10-19,56.8,49.7,43.9,48.8,44.2,40.4,92,82,69,30.09,29.87,7,1,14,0.05
2013-10-20,63.3,51.2,41.2,42.2,39.6,38.1,94,68,41,30.16,30.05,5,1,12,0.00
2013-10-21,72.7,63.3,43.3,41.1,37.4,32.6,83,40,24,30.18,29.97,4,2,14,0.00
2013-10-22,61.0,51.3,42.1,49.4,36.5,25.6,94,60,30,30.09,29.95,4,1,15,0.18
2013-10-23,45.5,42.3,38.7,40.7,37.0,32.3,91,82,62,30.04,29.87,4,1,16,0.15
2013-10-24,50.4,41.2,37.0,36.2,32.9,27.9,92,74,45,30.25,30.03,5,2,14,0.00
2013-10-25,46.2,37.2,34.9,37.0,33.2,31.1,92,86,68,30.43,30.25,2,1,8,0.00
2013-10-26,53.4,44.6,34.5,33.9,29.2,24.7,81,57,36,30.34,30.00,6,2,14,0.00
2013-10-27,58.5,46.2,36.7,38.7,34.1,30.9,87,65,36,30.22,30.09,4,1,11,0.00
2013-10-28,65.5,53.9,32.0,44.8,36.0,31.0,100,55,29,30.40,30.21,2,0,6,0.00
2013-10-29,54.5,42.1,37.0,42.6,37.8,35.8,97,85,64,30.49,30.40,3,0,6,0.00
2013-10-30,71.1,62.0,45.0,55.8,50.0,40.9,88,67,41,30.35,30.22,3,1,8,0.00
2013-10-31,70.3,63.6,59.2,60.3,58.6,55.6,97,84,63,30.22,29.60,6,2,19,0.18
2013-11-1,68.9,62.3,57.7,60.5,49.4,43.0,90,64,43,29.83,29.48,6,2,24,0.12
2013-11-2,58.3,51.5,45.5,45.7,43.8,42.1,93,75,59,30.07,29.78,4,2,12,0.06
2013-11-3,55.4,43.7,33.6,43.3,33.7,24.7,93,70,39,30.56,30.07,5,2,11,0.00
2013-11-4,34.7,31.6,30.4,26.0,24.8,22.9,80,76,63,30.65,30.56,2,1,8,0.00
2013-11-5,61.2,49.5,38.7,34.2,30.9,25.4,69,50,35,30.60,30.44,4,1,8,0.00
2013-11-6,75.0,64.8,38.3,58.3,50.7,30.2,96,62,43,30.43,30.04,4,1,14,0.09
2013-11-7,58.8,47.6,41.2,58.7,41.0,26.4,100,79,52,30.24,29.99,6,2,18,0.41
2013-11-8,48.6,40.5,31.5,33.0,28.7,23.3,84,64,41,30.39,30.19,4,2,19,0.00
2013-11-9,61.0,46.4,29.7,32.1,26.8,19.3,93,53,21,30.39,30.05,4,2,15,0.00
2013-11-10,54.9,46.8,38.7,38.5,33.0,28.1,72,59,40,30.38,30.07,6,3,23,0.00
2013-11-11,51.1,43.4,34.5,38.1,31.1,26.6,93,64,40,30.38,30.14,7,1,21,0.01
2013-11-12,39.9,32.6,28.4,33.8,26.1,17.5,100,79,45,30.56,30.21,7,2,18,0.08
2013-11-13,42.6,33.0,26.1,27.0,23.5,20.2,95,70,43,30.61,30.46,4,2,17,0.02
2013-11-14,55.8,40.3,28.4,25.1,21.5,16.9,77,50,24,30.46,30.27,3,2,14,0.00
2013-11-15,61.3,49.1,38.5,36.6,24.8,14.9,55,40,18,30.32,30.23,3,1,13,0.00
2013-11-16,63.0,54.3,40.6,50.2,44.5,36.4,91,70,53,30.35,30.14,3,0,11,0.00
2013-11-17,61.9,58.1,54.1,60.3,54.7,48.1,100,89,71,30.14,29.66,6,2,26,0.60
2013-11-18,60.6,51.0,40.5,50.3,35.4,26.6,76,56,37,30.17,29.73,6,4,26,0.00
2013-11-19,40.5,36.9,29.1,28.3,25.6,23.4,80,63,55,30.50,30.17,5,2,15,0.00
2013-11-20,52.9,38.7,26.4,27.0,18.6,8.0,89,51,18,30.57,30.44,5,1,17,0.00
2013-11-21,58.1,46.4,34.9,39.1,29.7,16.6,66,52,40,30.53,30.32,3,0,10,0.00
2013-11-22,54.9,50.1,38.1,54.9,47.1,33.3,100,90,62,30.36,30.17,5,1,17,0.14
2013-11-23,43.0,32.8,21.2,33.6,24.3,9.7,89,72,46,30.43,30.23,7,3,25,0.01
2013-11-24,28.4,21.7,17.8,16.0,11.4,6.5,81,65,47,30.61,30.42,6,3,18,0.00
2013-11-25,39.0,28.9,18.5,24.1,11.1,6.0,69,49,27,30.58,30.30,4,1,12,0.00
2013-11-26,36.9,33.7,32.7,34.7,32.1,24.4,100,94,61,30.32,30.07,3,0,8,0.00
2013-11-27,33.8,27.1,23.9,33.5,22.5,18.0,100,82,72,30.21,29.82,4,0,8,0.11
2013-11-28,32.7,27.0,19.8,22.8,18.3,13.9,83,70,53,30.50,30.21,3,1,8,0.00
2013-11-29,39.2,31.7,25.9,28.1,22.4,20.0,85,69,52,30.74,30.50,4,1,7,0.01
2013-11-30,44.2,33.2,25.5,27.2,23.2,19.7,83,67,48,30.71,30.31,4,1,12,0.08
2013-12-1,48.4,39.9,27.5,32.4,30.0,20.3,91,69,50,30.32,30.08,3,0,10,0.01
2013-12-2,50.9,43.3,37.2,37.3,34.8,31.9,94,72,58,30.08,29.93,3,0,7,0.00
2013-12-3,59.4,44.3,37.0,47.0,39.5,35.7,100,84,57,30.03,29.96,2,0,32,0.02
2013-12-4,60.8,49.4,36.7,49.2,43.7,35.7,100,82,63,30.10,29.99,2,0,8,0.00
2013-12-5,63.9,57.0,39.6,61.0,53.0,38.3,100,87,71,30.18,29.96,6,2,14,0.61
2013-12-6,39.6,34.3,29.1,38.5,33.2,28.9,100,96,87,30.38,30.14,5,1,15,0.21
2013-12-7,34.3,27.7,20.1,29.7,21.9,14.3,100,79,62,30.67,30.36,0,0,24,0.00
2013-12-8,32.0,25.1,19.0,32.0,21.0,14.2,100,84,74,30.68,30.17,0,0,0,0.01
2013-12-9,39.7,35.6,31.1,39.6,32.6,24.4,100,89,74,30.24,30.05,5,2,14,0.14
2013-12-10,31.3,27.7,23.9,24.9,19.5,10.9,94,72,45,30.34,30.13,5,2,14,0.00
2013-12-11,30.6,23.9,20.7,16.2,14.3,13.2,76,67,52,30.44,30.34,4,2,12,0.00
2013-12-12,23.7,20.7,13.8,16.2,8.1,4.5,82,59,44,30.55,30.34,6,2,14,0.00
2013-12-13,37.6,28.7,21.9,22.5,14.3,6.1,75,55,41,30.34,30.29,4,1,11,0.00
2013-12-14,38.1,32.9,28.9,37.9,29.4,22.2,100,87,72,30.33,29.76,4,1,7,0.38
2013-12-15,39.4,31.1,21.9,39.1,26.8,12.3,99,84,62,30.12,29.73,4,1,9,0.13
2013-12-16,26.8,24.9,19.6,22.4,17.5,11.9,85,73,59,30.26,30.12,2,1,6,0.00
2013-12-17,36.9,32.1,25.7,33.4,28.0,22.2,95,85,68,30.13,30.02,5,1,11,0.07
2013-12-18,32.0,28.7,26.8,26.9,23.1,19.6,92,79,69,30.29,30.12,6,2,13,0.00
2013-12-19,53.4,41.0,28.0,36.7,29.2,21.9,85,64,40,30.20,30.12,4,1,10,0.00
2013-12-20,56.8,51.5,36.1,52.2,41.2,30.1,90,70,47,30.13,30.00,4,2,14,0.04
2013-12-21,61.9,58.8,54.9,61.9,57.0,50.6,100,94,82,30.01,29.76,4,2,13,0.54
2013-12-22,68.4,61.4,55.6,62.1,56.7,48.3,100,85,73,30.07,29.67,9,2,21,0.20
2013-12-23,55.4,40.4,32.0,48.7,35.1,21.2,100,82,64,30.38,30.07,4,2,12,0.07
2013-12-24,32.4,24.7,16.0,25.8,16.2,8.8,91,70,56,30.60,30.31,6,2,17,0.00
2013-12-25,29.5,21.9,14.0,25.7,13.6,8.4,92,71,56,30.59,30.31,3,1,10,0.00
2013-12-26,38.8,32.2,27.3,29.7,24.5,16.7,97,74,52,30.44,30.22,5,2,16,0.04
2013-12-27,44.6,36.5,28.6,29.7,24.6,18.0,72,62,51,30.46,30.35,3,1,11,0.01
2013-12-28,54.7,45.0,37.2,32.0,28.1,23.6,60,52,40,30.35,30.16,3,1,14,0.00
2013-12-29,45.3,42.4,39.9,43.3,37.1,26.3,100,84,49,30.16,29.78,4,1,14,0.54
2013-12-30,41.7,30.6,25.2,39.8,26.7,17.8,93,85,71,30.28,29.94,5,1,18,0.00
2013-12-31,27.0,25.5,23.9,22.7,18.6,14.4,89,75,64,30.39,30.16,6,2,19,0.00
2014-1-1,35.6,29.4,25.0,26.3,23.2,19.8,86,77,67,30.41,30.15,4,1,9,0.00
2014-1-2,30.9,25.5,11.5,29.1,23.0,8.7,100,90,82,30.15,29.79,7,2,16,0.00